TOURFACTS.DK  
Stats and Facts from Tour de France.

Tour de France 2018 starts in 258 days
  Riders   Stages   Teams   Summits   Yearly  


 
Search by year

 2017 - St. 21:  14824 starters.
  5131 different riders.
  634 teams.
  2232 stages.
  454 restdays.
  439589.60 km.
  5653 abandonnees.


Top 3
Christopher Froome86:20:55
Rigoberto Uran86:21:49
Romain Bardet86:23:15
Warren Barguil169 pt.
Primoz Roglic80 pt.
Thomas De Gendt64 pt.
Michael Matthews359 pt.
André Greipel234 pt.
Edvald Boasson Hagen220 pt.
Simon Yates86:27:09
Louis Meintjes86:29:15
Emanuel Buchmann86:54:16
Facts from Tour de France 2017
  |   Stages.  |   Stage winners.  |   Days in yellow  |   Average speed.  |   Route.  |   Teams.  |   All riders.  |   Rookies.  |   Withdrawls.  |  

  |   GC.  |   Polka  |   Green  |   White  |   Summits. (In tour)  |   Summits. (Points)  |   Miscellaneous.  |  

Stage 8 on 08 - 07 - 2017
         Owning:    Christopher Froome      Lilian Calmejane      Marcel Kittel      Simon Yates  

Pick a stage:  1 2 3 4 5 6 7 8 9 10 11 12 13 14 15 16 17 18 19 20 21
  DoleStation-des-Rousses | Dist: 187.50 km.
Cat: 3Col de la JouxFRAWarren Barguil
2 points
 
Cat: 2Côte de ViryFRAWarren Barguil
5 points
 
Cat: 1Côte de la Combe de Laisia-Les Molunes FRALilian Calmejane
10 points
 

Average speed for all riders in stage:  38,968 km./hr.
    Place:Name:Team:Time:Km/h:
FRALilian CalmejaneFRADirect Energie04:30:29  +  00:00:00=41,592 
NEDRobert GesinkNLDTeam Lotto NL - Jumbo04:31:06  +  00:00:37=41,498 
FRAGuillaume MartinBELWanty – Groupe Gobert04:31:19  +  00:00:50=41,464 
4 FRANicolas RocheUSABMC Racing Team04:31:19  +  00:00:50=41,464 
5 CZERoman KreuzigerAUSOrica - Scott04:31:19  +  00:00:50=41,464 
6 ITAFabio AruKAZAstana Pro Team04:31:19  +  00:00:50=41,464 
7 DENMichael ValgrenKAZAstana Pro Team04:31:19  +  00:00:50=41,464 
8 POLRafal MajkaDEUBora–Hansgrohe04:31:19  +  00:00:50=41,464 
9 USANathan BrownUSACannondale-Drapac Pro Cycling ..04:31:19  +  00:00:50=41,464 
10 FRARomain HardyFRAFortuneo - Vital Concept04:31:19  +  00:00:50=41,464 
11 COLCarlos Alberto BetancurESPMovistar Team04:31:19  +  00:00:50=41,464 
12 RSALouis MeintjesUAEUAE Team Emirates04:31:19  +  00:00:50=41,464 
13 ENGDaniel MartinBELQuick-Step Floors04:31:19  +  00:00:50=41,464 
14 GEREmanuel BuchmannDEUBora–Hansgrohe04:31:19  +  00:00:50=41,464 
15 ESPMikel Landa MeanaGBRSky Procycling04:31:19  +  00:00:50=41,464 
16 ITADamiano CarusoUSABMC Racing Team04:31:19  +  00:00:50=41,464 
17 AUSRichie PorteUSABMC Racing Team04:31:19  +  00:00:50=41,464 
18 KENChristopher FroomeGBRSky Procycling04:31:19  +  00:00:50=41,464 
19 NZLGeorge BennettNLDTeam Lotto NL - Jumbo04:31:19  +  00:00:50=41,464 
20 COLNairo QuintanaESPMovistar Team04:31:19  +  00:00:50=41,464 
21 COLJohan Esteban ChavesAUSOrica - Scott04:31:19  +  00:00:50=41,464 
22 FRABrice FeilluFRAFortuneo - Vital Concept04:31:19  +  00:00:50=41,464 
23 FRAPierre-Roger LatourFRAAg2r La Mondiale04:31:19  +  00:00:50=41,464 
24 BELThomas DegandBELWanty – Groupe Gobert04:31:19  +  00:00:50=41,464 
25 SUIJakob FuglsangKAZAstana Pro Team04:31:19  +  00:00:50=41,464 
26 FRAAlexis VuillermozFRAAg2r La Mondiale04:31:19  +  00:00:50=41,464 
27 FRARomain BardetFRAAg2r La Mondiale04:31:19  +  00:00:50=41,464 
28 ESPDaniel NavarroFRACofidis – Solutions Crédits04:31:19  +  00:00:50=41,464 
29 ENGSimon YatesAUSOrica - Scott04:31:19  +  00:00:50=41,464 
30 ESPAlberto ContadorUSATrek – Segafredo04:31:19  +  00:00:50=41,464 
31 ESPJonathan CastroviejoESPMovistar Team04:31:19  +  00:00:50=41,464 
32 ARGEduardo SepulvedaFRAFortuneo - Vital Concept04:31:19  +  00:00:50=41,464 
33 WALGeraint ThomasGBRSky Procycling04:31:19  +  00:00:50=41,464 
34 COLRigoberto UranUSACannondale-Drapac Pro Cycling ..04:31:19  +  00:00:50=41,464 
35 FRAPierre RollandUSACannondale-Drapac Pro Cycling ..04:31:19  +  00:00:50=41,464 
36 USAAndrew TalanskyUSACannondale-Drapac Pro Cycling ..04:31:19  +  00:00:50=41,464 
37 ESPMikel NieveGBRSky Procycling04:31:19  +  00:00:50=41,464 
38 COLSergio Luis HenaoGBRSky Procycling04:31:19  +  00:00:50=41,464 
39 ESPHaimar ZubeldiaUSATrek – Segafredo04:31:19  +  00:00:50=41,464 
40 BELSerge PauwelsZAFDimension Data04:31:19  +  00:00:50=41,464 
41 POLPawel PoljanskiDEUBora–Hansgrohe04:31:25  +  00:00:56=41,449 
42 FRATony GallopinBELLotto Soudal04:32:28  +  00:01:59=41,289 
43 ESPLuis Angel MateFRACofidis – Solutions Crédits04:32:54  +  00:02:25=41,224 
44 KAZAlexey LutsenkoKAZAstana Pro Team04:37:28  +  00:06:59=40,545 
45 COLJarlinson Pantano GomezUSATrek – Segafredo04:37:28  +  00:06:59=40,545 
46 KAZAndrey ZeitsKAZAstana Pro Team04:39:16  +  00:08:47=40,284 
47 FRAWarren BarguilDEUTeam Sunweb04:39:16  +  00:08:47=40,284 
48 FRAArthur VichotFRAFDJ04:40:03  +  00:09:34=40,171 
49 NEDMarco MinnaardBELWanty – Groupe Gobert04:40:03  +  00:09:34=40,171 
50 AUSJay McCarthyDEUBora–Hansgrohe04:40:03  +  00:09:34=40,171 
51 FRAYoann OffredoBELWanty – Groupe Gobert04:40:03  +  00:09:34=40,171 
52 SLOJanez BrajkovicBHRBahrain-Merida04:40:03  +  00:09:34=40,171 
53 HRVRobert KiserlovskiCHETeam Katusha - Alpecin04:40:03  +  00:09:34=40,171 
54 CZEOndrej CinkBHRBahrain-Merida04:40:03  +  00:09:34=40,171 
55 SUIMathias FrankFRAAg2r La Mondiale04:40:03  +  00:09:34=40,171 
56 FRAAxel DomontFRAAg2r La Mondiale04:40:03  +  00:09:34=40,171 
57 BELJan BakelantsFRAAg2r La Mondiale04:40:03  +  00:09:34=40,171 
58 FRASylvain ChavanelFRADirect Energie04:40:03  +  00:09:34=40,171 
59 AUSSimon ClarkeUSACannondale-Drapac Pro Cycling ..04:40:03  +  00:09:34=40,171 
60 PORTiago PintoCHETeam Katusha - Alpecin04:43:41  +  00:13:12=39,657 
61 FRAAmaël MoinardUSABMC Racing Team04:43:41  +  00:13:12=39,657 
62 BELGreg Van AvermaetUSABMC Racing Team04:43:41  +  00:13:12=39,657 
63 AUSDamien HowsonAUSOrica - Scott04:43:41  +  00:13:12=39,657 
64 BELJens KeukeleireAUSOrica - Scott04:43:41  +  00:13:12=39,657 
65 NEDDylan Van BaarleUSACannondale-Drapac Pro Cycling ..04:43:57  +  00:13:28=39,620 
66 GERGianluca BrambillaBELQuick-Step Floors04:43:57  +  00:13:28=39,620 
67 BELOliver NaesenFRAAg2r La Mondiale04:43:57  +  00:13:28=39,620 
68 BELTiesj BenootBELLotto Soudal04:43:57  +  00:13:28=39,620 
69 FRACyril GautierFRAAg2r La Mondiale04:43:57  +  00:13:28=39,620 
70 FRAAngelo TulikFRADirect Energie04:43:57  +  00:13:28=39,620 
71 FRARudy MolardFRAFDJ04:43:57  +  00:13:28=39,620 
72 NEDBauke MollemaUSATrek – Segafredo04:43:57  +  00:13:28=39,620 
73 NEDLaurens ten DamDEUTeam Sunweb04:43:57  +  00:13:28=39,620 
74 LUXBen GastauerFRAAg2r La Mondiale04:43:57  +  00:13:28=39,620 
75 FRAPerrig QuemeneurFRADirect Energie04:45:43  +  00:15:14=39,375 
76 FRAThibaut PinotFRAFDJ04:45:43  +  00:15:14=39,375 
77 BELThomas De GendtBELLotto Soudal04:45:43  +  00:15:14=39,375 
78 AUSAdam HansenBELLotto Soudal04:45:43  +  00:15:14=39,375 
79 AUTMichael GoglUSATrek – Segafredo04:47:21  +  00:16:52=39,151 
80 FRAMaxime BouetFRAFortuneo - Vital Concept04:47:21  +  00:16:52=39,151 
81 SUIMichael SchärUSABMC Racing Team04:47:44  +  00:17:15=39,099 
82 GERNils PolittCHETeam Katusha - Alpecin04:47:44  +  00:17:15=39,099 
83 BELPhilippe GilbertBELQuick-Step Floors04:47:44  +  00:17:15=39,099 
84 BELFrederik BackaertBELWanty – Groupe Gobert04:47:44  +  00:17:15=39,099 
85 GERMarcus BurghardtDEUBora–Hansgrohe04:47:44  +  00:17:15=39,099 
86 NEDKoen De KortUSATrek – Segafredo04:51:25  +  00:20:56=38,605 
87 ITAFabio FellineUSATrek – Segafredo04:51:25  +  00:20:56=38,605 
88 ITAAlberto BettiolUSACannondale-Drapac Pro Cycling ..04:51:25  +  00:20:56=38,605 
89 GERNikias ArndtDEUTeam Sunweb04:51:25  +  00:20:56=38,605 
90 BELJulien VermoteBELQuick-Step Floors04:51:25  +  00:20:56=38,605 
91 GERRick ZabelCHETeam Katusha - Alpecin04:51:25  +  00:20:56=38,605 
92 POLMichal KwiatkowskiGBRSky Procycling04:51:25  +  00:20:56=38,605 
93 FRANicolas EdetFRACofidis – Solutions Crédits04:51:25  +  00:20:56=38,605 
94 CZEZdenek StybarBELQuick-Step Floors04:51:25  +  00:20:56=38,605 
95 ITADario CataldoKAZAstana Pro Team04:51:25  +  00:20:56=38,605 
96 GERPaul MartensNLDTeam Lotto NL - Jumbo04:51:25  +  00:20:56=38,605 
97 AUTMarco HallerCHETeam Katusha - Alpecin04:51:25  +  00:20:56=38,605 
98 ITADiego UlissiUAEUAE Team Emirates04:51:25  +  00:20:56=38,605 
99 NEDMaurits LammertinkCHETeam Katusha - Alpecin04:51:25  +  00:20:56=38,605 
100 BELJürgen RoelandtsBELLotto Soudal04:51:25  +  00:20:56=38,605 
101 BELPieter VanspeybrouckBELWanty – Groupe Gobert04:51:25  +  00:20:56=38,605 
102 HRVKristijan DurasekUAEUAE Team Emirates04:51:25  +  00:20:56=38,605 
103 FRAFlorian VachonFRAFortuneo - Vital Concept04:51:25  +  00:20:56=38,605 
104 ITAManuele MoriUAEUAE Team Emirates04:51:25  +  00:20:56=38,605 
105 ITAMatteo BonoUAEUAE Team Emirates04:51:25  +  00:20:56=38,605 
106 FRAPierre-Luc PérichonFRAFortuneo - Vital Concept04:51:25  +  00:20:56=38,605 
107 ETHTsgabu Gebremaryan GrmayBHRBahrain-Merida04:51:25  +  00:20:56=38,605 
108 SUIMichael AlbasiniAUSOrica - Scott04:51:25  +  00:20:56=38,605 
109 COLDarwin AtapumaUAEUAE Team Emirates04:51:25  +  00:20:56=38,605 
110 SUIStefan KüngUSABMC Racing Team04:51:25  +  00:20:56=38,605 
111 FRALaurent PichonFRAFortuneo - Vital Concept04:51:25  +  00:20:56=38,605 
112 FRACyril LemoineFRACofidis – Solutions Crédits04:51:25  +  00:20:56=38,605 
113 CRCAndrey AmadorESPMovistar Team04:51:25  +  00:20:56=38,605 
114 KAZBakhtiyar KozhatayevKAZAstana Pro Team04:51:25  +  00:20:56=38,605 
115 ENGBen SwiftUAEUAE Team Emirates04:51:25  +  00:20:56=38,605 
116 RSADaryl ImpeyAUSOrica - Scott04:51:25  +  00:20:56=38,605 
117 GERJohn DegenkolbUSATrek – Segafredo04:51:25  +  00:20:56=38,605 
118 ENGScott ThwaitesZAFDimension Data04:51:25  +  00:20:56=38,605 
119 NORVegard Stake LaengenUAEUAE Team Emirates04:51:25  +  00:20:56=38,605 
120 NZLPaddy BevinUSACannondale-Drapac Pro Cycling ..04:51:25  +  00:20:56=38,605 
121 SUIDanilo WyssUSABMC Racing Team04:51:25  +  00:20:56=38,605 
122 POLMaciej BodnarDEUBora–Hansgrohe04:51:25  +  00:20:56=38,605 
123 NOREdvald Boasson HagenZAFDimension Data04:51:25  +  00:20:56=38,605 
124 NEDMike TeunissenDEUTeam Sunweb04:51:25  +  00:20:56=38,605 
125 SLOPrimoz RoglicNLDTeam Lotto NL - Jumbo04:51:25  +  00:20:56=38,605 
126 AUSMichael MatthewsDEUTeam Sunweb04:51:25  +  00:20:56=38,605 
127 ESPJavier Moreno BazánBHRBahrain-Merida04:51:25  +  00:20:56=38,605 
128 KAZDmitriy GruzdevKAZAstana Pro Team04:51:25  +  00:20:56=38,605 
129 ITAAlessandro De MarchiUSABMC Racing Team04:51:25  +  00:20:56=38,605 
130 ESPJesus HerradaESPMovistar Team04:51:25  +  00:20:56=38,605 
131 GERJasha SütterlinESPMovistar Team04:54:58  +  00:24:29=38,140 
132 ESPImanol ErvitiESPMovistar Team04:54:58  +  00:24:29=38,140 
133 AUSMathew HaymanAUSOrica - Scott04:54:58  +  00:24:29=38,140 
134 ITAMatteo TrentinBELQuick-Step Floors04:57:55  +  00:27:26=37,762 
135 SLOGrega BoleBHRBahrain-Merida04:58:18  +  00:27:49=37,714 
136 FRARomain SicardFRADirect Energie04:58:59  +  00:28:30=37,628 
137 NZLDion SmithBELWanty – Groupe Gobert05:02:03  +  00:31:34=37,245 
138 NZLJack BauerBELQuick-Step Floors05:02:03  +  00:31:34=37,245 
139 ITAFabio SabatiniBELQuick-Step Floors05:02:03  +  00:31:34=37,245 
140 GERChristian KneesGBRSky Procycling05:02:03  +  00:31:34=37,245 
141 GERMarcel SiebergBELLotto Soudal05:02:03  +  00:31:34=37,245 
142 SUIReto HollensteinCHETeam Katusha - Alpecin05:02:03  +  00:31:34=37,245 
143 JPNYukiya ArashiroBHRBahrain-Merida05:02:03  +  00:31:34=37,245 
144 FRAYohann GèneFRADirect Energie05:02:03  +  00:31:34=37,245 
145 FRANacer BouhanniFRACofidis – Solutions Crédits05:02:03  +  00:31:34=37,245 
146 FRAElie GesbertFRAFortuneo - Vital Concept05:02:03  +  00:31:34=37,245 
147 FRAAdrien PetitFRADirect Energie05:02:03  +  00:31:34=37,245 
148 ESPMarkel IrizarUSATrek – Segafredo05:02:03  +  00:31:34=37,245 
149 BELDimitri ClaeysFRACofidis – Solutions Crédits05:02:03  +  00:31:34=37,245 
150 GERMarcel KittelBELQuick-Step Floors05:02:03  +  00:31:34=37,245 
151 DENLars BakBELLotto Soudal05:02:03  +  00:31:34=37,245 
152 GERAndré GreipelBELLotto Soudal05:02:03  +  00:31:34=37,245 
153 FRAThomas BoudatFRADirect Energie05:02:03  +  00:31:34=37,245 
154 AUTBernhard EiselZAFDimension Data05:02:03  +  00:31:34=37,245 
155 UKRAndriy GrivkoKAZAstana Pro Team05:02:03  +  00:31:34=37,245 
156 FRAJulien SimonFRACofidis – Solutions Crédits05:02:03  +  00:31:34=37,245 
157 GERRobert WagnerNLDTeam Lotto NL - Jumbo05:02:03  +  00:31:34=37,245 
158 NEDTom LeezerNLDTeam Lotto NL - Jumbo05:02:03  +  00:31:34=37,245 
159 DDRRüdiger SeligDEUBora–Hansgrohe05:02:03  +  00:31:34=37,245 
160 ITASonny ColbrelliBHRBahrain-Merida05:02:03  +  00:31:34=37,245 
161 GERTony MartinCHETeam Katusha - Alpecin05:02:03  +  00:31:34=37,245 
162 ITADaniele BennatiESPMovistar Team05:02:03  +  00:31:34=37,245 
163 ITAAndrea PasqualonBELWanty – Groupe Gobert05:02:03  +  00:31:34=37,245 
164 SLOBorut BozicBHRBahrain-Merida05:02:03  +  00:31:34=37,245 
165 ITAMarco MarcatoUAEUAE Team Emirates05:02:03  +  00:31:34=37,245 
166 BELGuillaume Van KeirsbulckBELWanty – Groupe Gobert05:02:03  +  00:31:34=37,245 
167 RSAJaco VenterZAFDimension Data05:02:03  +  00:31:34=37,245 
168 RSAReinardt Janse Van RensburgZAFDimension Data05:02:03  +  00:31:34=37,245 
169 FRAThomas VoecklerFRADirect Energie05:02:03  +  00:31:34=37,245 
170 FRAOlivier Le GacFRAFDJ05:02:03  +  00:31:34=37,245 
171 ITADavide CimolaiFRAFDJ05:02:03  +  00:31:34=37,245 
172 FRAChristophe LaporteFRACofidis – Solutions Crédits05:02:03  +  00:31:34=37,245 
173 FRAFlorian SénéchalFRACofidis – Solutions Crédits05:02:03  +  00:31:34=37,245 
174 NEDRamon SinkeldamDEUTeam Sunweb05:02:03  +  00:31:34=37,245 
175 NEDAlbert TimmerDEUTeam Sunweb05:02:03  +  00:31:34=37,245 
176 NEDDylan GroenewegenNLDTeam Lotto NL - Jumbo05:02:03  +  00:31:34=37,245 
177 USATaylor PhinneyUSACannondale-Drapac Pro Cycling ..05:02:03  +  00:31:34=37,245 
178 ENGDaniel McLayFRAFortuneo - Vital Concept05:02:03  +  00:31:34=37,245 
179 ENGStephen CummingsZAFDimension Data05:02:03  +  00:31:34=37,245 
180 NEDJos Van EmdenNLDTeam Lotto NL - Jumbo05:02:03  +  00:31:34=37,245 
181 NEDTimo RoosenNLDTeam Lotto NL - Jumbo05:02:03  +  00:31:34=37,245 
182 BLRVasil KiryienkaGBRSky Procycling05:02:03  +  00:31:34=37,245 
183 ITAJacopo GuarnieriFRAFDJ05:02:03  +  00:31:34=37,245 
184 GERSimon GeschkeDEUTeam Sunweb05:02:03  +  00:31:34=37,245 
185 NORAlexander KristoffCHETeam Katusha - Alpecin05:02:03  +  00:31:34=37,245 
186 FRAMickael DelageFRAFDJ05:08:02  +  00:37:33=36,522 
187 URSIgnatas KonovalovasFRAFDJ05:08:02  +  00:37:33=36,522 
188 FRAArnaud DémareFRAFDJ05:08:02  +  00:37:33=36,522 
189 NEDRoy CurversDEUTeam Sunweb05:08:02  +  00:37:33=36,522 
190 WALLuke RoweGBRSky Procycling05:08:02  +  00:37:33=36,522 
191 AUSMark RenshawZAFDimension Data05:08:02  +  00:37:33=36,522 
192 BELTim WellensBELLotto Soudal05:08:02  +  00:37:33=36,522 
193 SVKJuraj SaganDEUBora–Hansgrohe05:10:59  +  00:40:30=36,176 


Todays birthdays.

1890  Maurice Lartigue
1892  Mosé Arosio
1896  Henri Drapel
1919  Bernardo Capo
1920  Kléber Piot
1926  Victorio Garcia
1946  Lucien Van Impe
1946  Pierfranco Vianelli
1948  Jacques Boulas
1948  Yves Hézard
1962  Jan Goessens
1962  Jens Veggerby
1980  Patrik Sinkewitz
1986  Wesley Sulzberger